Hamilton Island, Australia

1:04 PM AEST on August 23, 2017 (GMT +1000)
Hamilton Island

Weather History for YBHM - November, 2013

Change the Weather History Date:

Tuesday, November 5, 2013

  Actual Average Record
Temperature  
Mean Temperature 77 °F -  
Max Temperature 82 °F - - ()
Min Temperature 72 °F - - ()
Cooling Degree Days 12    
Growing Degree Days 27 (Base 50)    
Moisture  
Dew Point 68 °F    
Average Humidity 72    
Maximum Humidity 94    
Minimum Humidity 55    
Precipitation  
Precipitation 0.08 in - - ()
Sea Level Pressure  
Sea Level Pressure 30.03 in    
Wind  
Wind Speed 16 mph ()    
Max Wind Speed 32 mph    
Max Gust Speed 38 mph    
T = Trace of Precipitation, MM = Missing Value Source: Averaged Metar Reports

Daily Weather History Graph

Daily Weather History Graph

Search for Another Location

Airport or City:

Trip Planner

Search our weather history database for the weather conditions in past years. The results will help you decide how hot, cold, wet, or windy it might be!

Date:

Astronomy

Nov. 05, 2013 Rise Set
Actual Time 5:20 AM AEST 6:15 PM AEST
Civil Twilight 4:57 AM AEST 6:38 PM AEST
Nautical Twilight 4:29 AM AEST 7:06 PM AEST
Astronomical Twilight 4:01 AM AEST 7:34 PM AEST
Moon 6:33 AM AEST (11/5) 8:01 PM AEST (11/5)
Length of Visible Light 13h 41m
Length of Day
12h 55m
Waxing Crescent, 3% of the Moon is Illuminated
Nov 5
Waxing Crescent
Nov 10
First Quarter
Nov 18
Full
Nov 26
Last Quarter
Dec 3
New

Hourly Weather History & Observations

Time (AEST) Temp. Heat Index Dew Point Humidity Pressure Visibility Wind Dir Wind Speed Gust Speed Precip Events Conditions
12:00 AM 74 °F - 67 °F 73% 30.00 in - ENE 8.1 mph - -  
12:00 AM 75.2 °F - 66.2 °F 73% 30.01 in - ENE 8.1 mph - N/A   Unknown
12:30 AM 73.4 °F - 68.0 °F 83% 29.98 in - ENE 6.9 mph - N/A   Unknown
1:00 AM 73.4 °F - 68.0 °F 83% 29.98 in - NNE 5.8 mph - N/A   Unknown
1:30 AM 73.4 °F - 68.0 °F 83% 29.98 in - NE 6.9 mph - N/A   Unknown
2:00 AM 73.4 °F - 68.0 °F 83% 29.98 in - NE 6.9 mph - N/A   Unknown
2:30 AM 73.4 °F - 68.0 °F 83% 29.98 in - ENE 8.1 mph - N/A   Unknown
3:00 AM 74 °F - 67 °F 72% 29.97 in - East 11.5 mph - -  
3:00 AM 75.2 °F - 66.2 °F 73% 29.98 in - East 11.5 mph - N/A   Unknown
3:30 AM 75.2 °F - 68.0 °F 78% 29.98 in - East 15.0 mph - N/A   Unknown
4:00 AM 75.2 °F - 68.0 °F 78% 29.98 in - East 18.4 mph - N/A   Unknown
4:30 AM 75.2 °F - 66.2 °F 73% 30.01 in - East 18.4 mph - N/A   Unknown
5:00 AM 75.2 °F - 66.2 °F 73% 30.01 in - ESE 19.6 mph - N/A   Unknown
5:30 AM 75.2 °F - 68.0 °F 78% 30.01 in - East 19.6 mph - N/A   Unknown
6:00 AM 76 °F - 67 °F 67% 30.03 in - ESE 20.7 mph - -  
6:00 AM 75.2 °F - 68.0 °F 78% 30.04 in - ESE 20.7 mph - N/A   Unknown
6:30 AM 77.0 °F - 66.2 °F 69% 30.04 in - ESE 23.0 mph - N/A   Unknown
7:00 AM 78.8 °F - 66.2 °F 65% 30.04 in - ESE 21.9 mph - N/A   Unknown
7:30 AM 78.8 °F - 68.0 °F 69% 30.06 in - ESE 24.2 mph - N/A   Unknown
8:00 AM 77.0 °F - 66.2 °F 69% 30.06 in - ESE 21.9 mph - N/A   Unknown
8:30 AM 78.8 °F - 66.2 °F 65% 30.06 in - East 24.2 mph - N/A   Unknown
9:00 AM 78 °F - 66 °F 58% 30.08 in - East 23.0 mph - -  
9:00 AM 78.8 °F - 66.2 °F 65% 30.06 in - East 23.0 mph - N/A   Unknown
9:30 AM 78.8 °F - 68.0 °F 69% 30.06 in - East 23.0 mph - N/A   Unknown
10:00 AM 80.6 °F 83.2 °F 68.0 °F 65% 30.06 in - East 23.0 mph - N/A   Unknown
10:30 AM 80.6 °F 83.2 °F 68.0 °F 65% 30.06 in - ESE 23.0 mph - N/A   Unknown
11:00 AM 80.6 °F 83.9 °F 69.8 °F 70% 30.06 in - East 20.7 mph - N/A   Unknown
11:30 AM 80.6 °F 83.2 °F 68.0 °F 65% 30.06 in - East 21.9 mph - N/A   Unknown
12:00 PM 82 °F - 69 °F 57% 30.06 in - East 21.9 mph - -  
12:00 PM 82.4 °F 86.3 °F 69.8 °F 66% 30.06 in - East 21.9 mph - N/A   Unknown
12:30 PM 78.8 °F - 66.2 °F 65% 30.04 in - ESE 23.0 mph - N/A   Unknown
1:00 PM 78.8 °F - 68.0 °F 69% 30.04 in - ESE 25.3 mph - N/A   Unknown
1:30 PM 80.6 °F 83.2 °F 68.0 °F 65% 30.04 in - ESE 25.3 mph - N/A   Unknown
2:00 PM 80.6 °F 83.2 °F 68.0 °F 65% 30.04 in - East 23.0 mph - N/A   Unknown
2:30 PM 80.6 °F 83.9 °F 69.8 °F 70% 30.01 in - East 21.9 mph - N/A   Unknown
3:00 PM 80 °F - 67 °F 55% 30.01 in - ESE 23.0 mph - -  
3:00 PM 78.8 °F - 66.2 °F 65% 30.01 in - ESE 23.0 mph - N/A   Unknown
3:30 PM 78.8 °F - 68.0 °F 69% 30.01 in - East 21.9 mph - N/A   Unknown
4:00 PM 78.8 °F - 68.0 °F 69% 30.01 in - ESE 21.9 mph - N/A   Unknown
4:30 PM 78.8 °F - 66.2 °F 65% 30.01 in - ESE 20.7 mph - N/A   Unknown
5:00 PM 77.0 °F - 68.0 °F 74% 30.01 in - ESE 20.7 mph - N/A   Unknown
5:30 PM 77.0 °F - 66.2 °F 69% 30.01 in - ESE 19.6 mph - N/A   Unknown
6:00 PM 77 °F - 68 °F 66% 30.02 in - ESE 19.6 mph - -  
6:00 PM 77.0 °F - 68.0 °F 74% 30.01 in - ESE 19.6 mph - N/A   Unknown
6:30 PM 77.0 °F - 66.2 °F 69% 30.01 in - East 20.7 mph - N/A   Unknown
7:00 PM 77.0 °F - 68.0 °F 74% 30.04 in - ESE 20.7 mph - N/A   Unknown
7:30 PM 75.2 °F - 69.8 °F 83% 30.04 in - ESE 20.7 mph - N/A   Unknown
8:00 PM 75.2 °F - 69.8 °F 83% 30.04 in - ESE 29.9 mph - N/A   Unknown
8:30 PM 77.0 °F - 69.8 °F 78% 30.04 in - ESE 27.6 mph - N/A   Unknown
9:00 PM 76 °F - 70 °F 78% 30.03 in - ESE 29.9 mph - -  
9:00 PM 77.0 °F - 69.8 °F 78% 30.04 in - ESE 29.9 mph - N/A   Unknown
9:34 PM 73.4 °F - 71.6 °F 94% 30.04 in - East 26.5 mph 38.0 mph N/A   Unknown
10:00 PM 75.2 °F - 69.8 °F 83% 30.04 in - ESE 31.1 mph - N/A   Unknown
10:30 PM 75.2 °F - 69.8 °F 83% 30.04 in - ESE 32.2 mph - N/A   Unknown
11:00 PM 75.2 °F - 69.8 °F 83% 30.04 in - East 32.2 mph - N/A   Unknown
11:30 PM 77.0 °F - 69.8 °F 78% 30.04 in - East 31.1 mph - N/A   Unknown